﻿Ship,Cruise,Serial No.,Date,,,Time,,Latitude,Longitude,xCO2_Air,F,xCO2_Sea,F,Wind_Dir,Wind_Spd,Atm_Prs,Atm_Tmp.,SST,F,SSS,F,pH2O
,,,Year,Month,Day,Hour,Min.,Deg.,Deg.,ppm,,ppm,,Deg.,m/s,hPa,deg.C,deg.C,,,,hPa
Mirai,MR16-09_leg3,1,2017,02,10,21,59,-59.2072,286.6287,400.9,2,-9.9,9,325,10,980.4,7.7,7.052,2,34.015,2,9.86
Mirai,MR16-09_leg3,2,2017,02,10,22,04,-59.2181,286.609,401,2,-9.9,9,327,11.2,980.1,7.7,7.043,2,34.014,2,9.85
Mirai,MR16-09_leg3,3,2017,02,10,22,12,-59.2371,286.5755,-9.9,9,398.2,2,329,11.5,980.2,7.6,7.031,2,34.011,2,9.85
Mirai,MR16-09_leg3,4,2017,02,10,22,19,-59.254,286.5459,-9.9,9,397.8,2,334,13.3,980.5,7.6,7.031,2,34.01,2,9.85
Mirai,MR16-09_leg3,5,2017,02,10,22,26,-59.2713,286.516,-9.9,9,397.4,2,331,11.2,979.9,7.5,6.996,2,34.01,2,9.82
Mirai,MR16-09_leg3,6,2017,02,10,22,33,-59.2886,286.4865,-9.9,9,397.4,2,329,10.4,979.9,7.5,6.925,2,34.002,2,9.77
Mirai,MR16-09_leg3,7,2017,02,10,22,40,-59.3061,286.457,-9.9,9,398.9,2,325,11,980.2,7.5,6.837,2,33.987,2,9.72
Mirai,MR16-09_leg3,8,2017,02,10,22,47,-59.3236,286.4274,-9.9,9,399.8,2,335,11.5,980.2,7.5,6.795,2,33.976,2,9.69
Mirai,MR16-09_leg3,9,2017,02,10,22,54,-59.341,286.3976,-9.9,9,400.2,2,330,10.6,979.9,7.4,6.77,2,33.971,2,9.67
Mirai,MR16-09_leg3,10,2017,02,10,23,18,-59.3974,286.2994,400.9,2,-9.9,9,330,10.6,979.6,7.3,6.773,2,33.97,2,9.67
Mirai,MR16-09_leg3,11,2017,02,10,23,22,-59.4086,286.2797,400.9,2,-9.9,9,330,10,979.4,7.4,6.771,2,33.971,2,9.67
Mirai,MR16-09_leg3,12,2017,02,10,23,30,-59.4279,286.2463,-9.9,9,399.8,2,330,10.2,979.7,7.3,6.758,2,33.969,2,9.66
Mirai,MR16-09_leg3,13,2017,02,10,23,37,-59.4455,286.2167,-9.9,9,399.6,2,330,10.2,979.5,7.3,6.742,2,33.967,2,9.65
Mirai,MR16-09_leg3,14,2017,02,10,23,44,-59.4631,286.1869,-9.9,9,399.6,2,332,8.5,979.6,7.2,6.727,2,33.968,2,9.64
Mirai,MR16-09_leg3,15,2017,02,10,23,51,-59.4807,286.157,-9.9,9,399.2,2,337,9.5,979.5,7.2,6.719,2,33.971,2,9.64
Mirai,MR16-09_leg3,16,2017,02,10,23,59,-59.4983,286.127,-9.9,9,398.3,2,339,10.6,979.3,7.1,6.658,2,33.967,2,9.6
Mirai,MR16-09_leg3,17,2017,02,11,00,06,-59.516,286.0969,-9.9,9,398,2,335,9.6,979.3,7.1,6.507,2,33.947,2,9.5
Mirai,MR16-09_leg3,18,2017,02,11,00,13,-59.5337,286.0671,-9.9,9,398.7,2,336,8,979.2,7.1,6.481,2,33.937,2,9.48
Mirai,MR16-09_leg3,19,2017,02,11,00,36,-59.5917,285.9679,401,2,-9.9,9,338,8.5,978.9,7,6.5,2,33.937,2,9.49
Mirai,MR16-09_leg3,20,2017,02,11,00,41,-59.603,285.9479,401.1,2,-9.9,9,339,9.5,978.7,7,6.553,2,33.942,2,9.53
Mirai,MR16-09_leg3,21,2017,02,11,00,48,-59.6226,285.9135,-9.9,9,397.7,2,341,9.1,978.8,7,6.638,2,33.952,2,9.58
Mirai,MR16-09_leg3,22,2017,02,11,00,56,-59.6404,285.8818,-9.9,9,396.8,2,340,9.5,978.8,7,6.681,2,33.958,2,9.61
Mirai,MR16-09_leg3,23,2017,02,11,01,03,-59.6583,285.85,-9.9,9,396.6,2,336,9,978.9,7,6.671,2,33.957,2,9.61
Mirai,MR16-09_leg3,24,2017,02,11,01,10,-59.6762,285.8183,-9.9,9,397.2,2,343,10,978.7,7,6.639,2,33.954,2,9.58
Mirai,MR16-09_leg3,25,2017,02,11,01,17,-59.6943,285.7864,-9.9,9,397,2,339,10.5,978.4,6.9,6.63,2,33.954,2,9.58
Mirai,MR16-09_leg3,26,2017,02,11,01,24,-59.7123,285.7553,-9.9,9,396.4,2,349,9.9,978.6,6.9,6.571,2,33.954,2,9.54
Mirai,MR16-09_leg3,27,2017,02,11,01,31,-59.7304,285.7242,-9.9,9,398.3,2,343,9.7,978.5,6.9,6.34,2,33.921,2,9.39
Mirai,MR16-09_leg3,28,2017,02,11,01,54,-59.7891,285.6224,401.1,2,-9.9,9,349,9.1,978,6.8,6.5,2,33.94,2,9.49
Mirai,MR16-09_leg3,29,2017,02,11,01,59,-59.8009,285.6023,401.1,2,-9.9,9,346,8.4,978.2,6.7,6.398,2,33.925,2,9.43
Mirai,MR16-09_leg3,30,2017,02,11,02,07,-59.8209,285.568,-9.9,9,400.2,2,346,9.2,977.9,6.6,6.267,2,33.905,2,9.34
Mirai,MR16-09_leg3,31,2017,02,11,02,14,-59.8391,285.5371,-9.9,9,400.5,2,346,8.6,977.8,6.6,6.201,2,33.898,2,9.3
Mirai,MR16-09_leg3,32,2017,02,11,02,21,-59.8572,285.5061,-9.9,9,400.5,2,346,9.9,977.8,6.6,6.16,2,33.891,2,9.27
Mirai,MR16-09_leg3,33,2017,02,11,02,28,-59.8753,285.4751,-9.9,9,400.5,2,337,8.9,977.9,6.6,6.141,2,33.887,2,9.26
Mirai,MR16-09_leg3,34,2017,02,11,02,35,-59.8936,285.4436,-9.9,9,400.5,2,338,9.9,977.8,6.5,6.138,2,33.882,2,9.26
Mirai,MR16-09_leg3,35,2017,02,11,02,42,-59.9116,285.4126,-9.9,9,400.5,2,337,8.7,977.4,6.6,6.137,2,33.878,2,9.26
Mirai,MR16-09_leg3,36,2017,02,11,02,50,-59.9297,285.3814,-9.9,9,400.7,2,338,9.1,977.5,6.6,6.128,2,33.876,2,9.25
Mirai,MR16-09_leg3,37,2017,02,11,03,13,-59.9892,285.2788,401.2,2,-9.9,9,339,9.1,977.6,6.5,6.111,2,33.876,2,9.24
Mirai,MR16-09_leg3,38,2017,02,11,03,17,-60.0009,285.2587,401.2,2,-9.9,9,334,10.2,977.5,6.5,6.109,2,33.876,2,9.24
Mirai,MR16-09_leg3,39,2017,02,11,03,25,-60.016,285.2168,-9.9,9,400.3,2,338,8.2,977.2,6.5,6.107,2,33.876,2,9.24
Mirai,MR16-09_leg3,40,2017,02,11,03,32,-60.0292,285.1783,-9.9,9,400.3,2,344,9.6,977.3,6.5,6.105,2,33.876,2,9.24
Mirai,MR16-09_leg3,41,2017,02,11,03,40,-60.0423,285.14,-9.9,9,400.1,2,343,10.2,977,6.4,6.102,2,33.877,2,9.24
Mirai,MR16-09_leg3,42,2017,02,11,03,47,-60.0555,285.1017,-9.9,9,400,2,337,11.5,976.9,6.5,6.1,2,33.875,2,9.23
Mirai,MR16-09_leg3,43,2017,02,11,03,54,-60.0686,285.0634,-9.9,9,400.4,2,343,11,977,6.5,6.102,2,33.874,2,9.24
Mirai,MR16-09_leg3,44,2017,02,11,04,01,-60.0816,285.025,-9.9,9,400.4,2,331,10.2,977.1,6.4,6.104,2,33.875,2,9.24
Mirai,MR16-09_leg3,45,2017,02,11,04,08,-60.0945,284.9867,-9.9,9,400.6,2,336,11.8,976.8,6.4,6.113,2,33.875,2,9.24
Mirai,MR16-09_leg3,46,2017,02,11,04,31,-60.1362,284.8626,401.1,2,-9.9,9,337,9.8,976.7,6.3,6.12,2,33.876,2,9.25
Mirai,MR16-09_leg3,47,2017,02,11,04,36,-60.1444,284.8379,401,2,-9.9,9,331,9.3,976.5,6.3,6.123,2,33.875,2,9.25
Mirai,MR16-09_leg3,48,2017,02,11,04,44,-60.1586,284.7952,-9.9,9,400.6,2,331,9.2,976.4,6.4,6.127,2,33.874,2,9.25
Mirai,MR16-09_leg3,49,2017,02,11,04,51,-60.1713,284.7572,-9.9,9,400.7,2,339,9.4,976.9,6.4,6.129,2,33.876,2,9.25
Mirai,MR16-09_leg3,50,2017,02,11,04,58,-60.1841,284.7188,-9.9,9,400.3,2,335,10.1,976.3,6.3,6.142,2,33.877,2,9.26
Mirai,MR16-09_leg3,51,2017,02,11,05,05,-60.1968,284.6806,-9.9,9,400.4,2,337,9,976.6,6.3,6.155,2,33.879,2,9.27
Mirai,MR16-09_leg3,52,2017,02,11,05,12,-60.2095,284.6426,-9.9,9,400.5,2,336,9.9,976.6,6.3,6.165,2,33.88,2,9.28
Mirai,MR16-09_leg3,53,2017,02,11,05,19,-60.2222,284.6049,-9.9,9,400.6,2,336,9.7,976.5,6.3,6.176,2,33.882,2,9.28
Mirai,MR16-09_leg3,54,2017,02,11,05,26,-60.2348,284.567,-9.9,9,400.5,2,339,10.1,976.2,6.3,6.188,2,33.883,2,9.29
Mirai,MR16-09_leg3,55,2017,02,11,05,50,-60.2758,284.4438,400.9,2,-9.9,9,336,10,976.2,6.2,6.236,2,33.885,2,9.32
Mirai,MR16-09_leg3,56,2017,02,11,05,54,-60.2839,284.4193,401,2,-9.9,9,341,10.2,976.2,6.2,6.241,2,33.884,2,9.33
Mirai,MR16-09_leg3,57,2017,02,11,06,02,-60.2976,284.3772,-9.9,9,400.5,2,335,10.5,975.8,6.2,6.25,2,33.884,2,9.33
Mirai,MR16-09_leg3,58,2017,02,11,06,09,-60.3102,284.3389,-9.9,9,400.2,2,345,9.6,976.1,6.2,6.251,2,33.884,2,9.33
Mirai,MR16-09_leg3,59,2017,02,11,06,16,-60.3227,284.3005,-9.9,9,400.7,2,339,10.3,976,6.3,6.255,2,33.88,2,9.33
Mirai,MR16-09_leg3,60,2017,02,11,06,23,-60.3351,284.2625,-9.9,9,400.9,2,342,9.7,975.8,6.3,6.249,2,33.882,2,9.33
Mirai,MR16-09_leg3,61,2017,02,11,06,31,-60.3474,284.2246,-9.9,9,400.9,2,345,9.6,975.5,6.3,6.24,2,33.882,2,9.32
Mirai,MR16-09_leg3,62,2017,02,11,06,38,-60.3597,284.1865,-9.9,9,401,2,350,9.8,975.5,6.3,6.238,2,33.881,2,9.32
Mirai,MR16-09_leg3,63,2017,02,11,06,45,-60.372,284.148,-9.9,9,401,2,352,8.4,975.7,6.3,6.234,2,33.882,2,9.32
Mirai,MR16-09_leg3,64,2017,02,11,07,08,-60.4114,284.0222,400.9,2,-9.9,9,349,9.9,975.6,6.3,6.259,2,33.871,2,9.34
Mirai,MR16-09_leg3,65,2017,02,11,07,13,-60.4192,283.9967,401,2,-9.9,9,344,9.4,975.3,6.4,6.264,2,33.868,2,9.34
Mirai,MR16-09_leg3,66,2017,02,11,07,20,-60.4326,283.9531,-9.9,9,402.5,2,349,10.1,975.1,6.4,6.263,2,33.864,2,9.34
Mirai,MR16-09_leg3,67,2017,02,11,07,28,-60.4447,283.9133,-9.9,9,402.5,2,352,11.5,975.2,6.4,6.264,2,33.856,2,9.34
Mirai,MR16-09_leg3,68,2017,02,11,07,35,-60.4567,283.8739,-9.9,9,402.5,2,348,12.5,974.8,6.4,6.277,2,33.854,2,9.35
Mirai,MR16-09_leg3,69,2017,02,11,07,42,-60.4687,283.8342,-9.9,9,402.9,2,346,12,975,6.3,6.288,2,33.852,2,9.36
Mirai,MR16-09_leg3,70,2017,02,11,07,49,-60.4811,283.7943,-9.9,9,402.6,2,352,11.4,975,6.1,6.27,2,33.851,2,9.34
Mirai,MR16-09_leg3,71,2017,02,11,07,56,-60.4934,283.7547,-9.9,9,402.8,2,346,11.7,974.8,6.3,6.245,2,33.853,2,9.33
Mirai,MR16-09_leg3,72,2017,02,11,08,03,-60.5058,283.7151,-9.9,9,403.3,2,350,11,975,6.3,6.25,2,33.856,2,9.33
Mirai,MR16-09_leg3,73,2017,02,11,08,26,-60.5468,283.5839,400.9,2,-9.9,9,353,10.6,974.7,6.3,6.299,2,33.854,2,9.36
Mirai,MR16-09_leg3,74,2017,02,11,08,31,-60.555,283.5575,400.9,2,-9.9,9,356,10.7,974.5,6.3,6.298,2,33.853,2,9.36
Mirai,MR16-09_leg3,75,2017,02,11,08,39,-60.5692,283.5122,-9.9,9,402,2,351,10.2,974.6,6.3,6.291,2,33.851,2,9.36
Mirai,MR16-09_leg3,76,2017,02,11,08,46,-60.5818,283.4714,-9.9,9,401.8,2,356,9.5,974.3,6.3,6.273,2,33.85,2,9.35
Mirai,MR16-09_leg3,77,2017,02,11,08,53,-60.5945,283.4302,-9.9,9,401.7,2,0,10.3,974.4,6.3,6.252,2,33.847,2,9.33
Mirai,MR16-09_leg3,78,2017,02,11,09,00,-60.607,283.3892,-9.9,9,402,2,0,12.3,974.2,6.4,6.242,2,33.845,2,9.33
Mirai,MR16-09_leg3,79,2017,02,11,09,07,-60.6194,283.3479,-9.9,9,402.3,2,359,10.5,974,6.3,6.236,2,33.844,2,9.32
Mirai,MR16-09_leg3,80,2017,02,11,09,14,-60.6318,283.3065,-9.9,9,402,2,3,10.3,974.1,6.4,6.236,2,33.842,2,9.32
Mirai,MR16-09_leg3,81,2017,02,11,09,22,-60.6441,283.2649,-9.9,9,402.2,2,1,10.6,974.1,6.4,6.243,2,33.842,2,9.33
Mirai,MR16-09_leg3,82,2017,02,11,09,45,-60.6835,283.1275,400.8,2,-9.9,9,354,11.3,974,6.4,6.258,2,33.854,2,9.34
Mirai,MR16-09_leg3,83,2017,02,11,09,49,-60.6911,283.1004,400.8,2,-9.9,9,1,11,974.1,6.4,6.256,2,33.856,2,9.33
Mirai,MR16-09_leg3,84,2017,02,11,09,57,-60.7043,283.054,-9.9,9,402.4,2,351,7.4,973.4,5.5,6.203,2,33.85,2,9.3
Mirai,MR16-09_leg3,85,2017,02,11,10,04,-60.7162,283.0115,-9.9,9,402.4,2,344,6.9,973.3,6.3,6.191,2,33.85,2,9.29
Mirai,MR16-09_leg3,86,2017,02,11,10,12,-60.7282,282.969,-9.9,9,402.4,2,355,10.7,973.5,6.3,6.179,2,33.854,2,9.29
Mirai,MR16-09_leg3,87,2017,02,11,10,19,-60.7403,282.9261,-9.9,9,402.5,2,354,9.8,973.2,6.4,6.178,2,33.858,2,9.28
Mirai,MR16-09_leg3,88,2017,02,11,10,26,-60.7526,282.8831,-9.9,9,402.9,2,358,11.9,973.5,6.4,6.179,2,33.859,2,9.29
Mirai,MR16-09_leg3,89,2017,02,11,10,33,-60.7649,282.8405,-9.9,9,402.9,2,0,11.9,973.2,6.4,6.135,2,33.862,2,9.26
Mirai,MR16-09_leg3,90,2017,02,11,10,40,-60.7772,282.7982,-9.9,9,401.2,2,354,10.8,972.9,6.3,6.032,2,33.854,2,9.19
Mirai,MR16-09_leg3,91,2017,02,11,11,03,-60.8185,282.6598,400.7,2,-9.9,9,359,10,972.9,6.2,5.82,2,33.841,2,9.06
Mirai,MR16-09_leg3,92,2017,02,11,11,08,-60.8266,282.6324,400.7,2,-9.9,9,352,9.9,972.5,6.2,5.811,2,33.842,2,9.05
Mirai,MR16-09_leg3,93,2017,02,11,11,16,-60.8407,282.5855,-9.9,9,400.3,2,0,10.7,972.3,6.1,5.751,2,33.849,2,9.01
Mirai,MR16-09_leg3,94,2017,02,11,11,23,-60.8531,282.5431,-9.9,9,401.1,2,5,9.8,972.3,6.1,5.743,2,33.866,2,9.01
Mirai,MR16-09_leg3,95,2017,02,11,11,30,-60.8656,282.5003,-9.9,9,400.8,2,15,9.3,972.6,6.1,5.776,2,33.883,2,9.03
Mirai,MR16-09_leg3,96,2017,02,11,11,37,-60.878,282.4576,-9.9,9,400.6,2,12,9.9,972.5,6.1,5.794,2,33.891,2,9.04
Mirai,MR16-09_leg3,97,2017,02,11,11,44,-60.8902,282.4148,-9.9,9,400.4,2,2,9.6,972.4,6.1,5.85,2,33.901,2,9.08
Mirai,MR16-09_leg3,98,2017,02,11,11,51,-60.9025,282.372,-9.9,9,399.8,2,358,10.3,972.2,6,5.908,2,33.911,2,9.11
Mirai,MR16-09_leg3,99,2017,02,11,11,58,-60.9151,282.3288,-9.9,9,398.9,2,3,10.7,972.1,6,5.97,2,33.924,2,9.15
Mirai,MR16-09_leg3,100,2017,02,11,12,22,-60.9564,282.1888,400.8,2,-9.9,9,9,8.9,971.9,6,6.023,2,33.931,2,9.19
Mirai,MR16-09_leg3,101,2017,02,11,12,26,-60.9647,282.161,400.8,2,-9.9,9,5,8.3,971.8,6.1,6.029,2,33.932,2,9.19
Mirai,MR16-09_leg3,102,2017,02,11,12,34,-60.9788,282.1134,-9.9,9,399.3,2,326,8,971.9,5.3,6.032,2,33.932,2,9.19
Mirai,MR16-09_leg3,103,2017,02,11,12,41,-60.9914,282.0716,-9.9,9,399.2,2,343,6.9,971.9,5.3,6.026,2,33.929,2,9.19
Mirai,MR16-09_leg3,104,2017,02,11,12,48,-61.0041,282.0284,-9.9,9,399.6,2,354,7,971.7,5.3,6.027,2,33.928,2,9.19
Mirai,MR16-09_leg3,105,2017,02,11,12,55,-61.0168,281.9856,-9.9,9,399.9,2,2,7.7,971.8,5.4,6.045,2,33.926,2,9.2
Mirai,MR16-09_leg3,106,2017,02,11,13,03,-61.0296,281.9424,-9.9,9,399.6,2,3,7,971.7,5.7,6.061,2,33.925,2,9.21
Mirai,MR16-09_leg3,107,2017,02,11,13,10,-61.0427,281.8988,-9.9,9,399.3,2,5,8.3,971.5,5.9,6.072,2,33.924,2,9.22
Mirai,MR16-09_leg3,108,2017,02,11,13,17,-61.0558,281.8555,-9.9,9,398.9,2,5,8.4,971.5,6.1,6.102,2,33.925,2,9.24
Mirai,MR16-09_leg3,109,2017,02,11,13,40,-61.0989,281.7163,400.7,2,-9.9,9,356,9.5,970.9,6.1,5.994,2,33.91,2,9.17
Mirai,MR16-09_leg3,110,2017,02,11,13,45,-61.1075,281.689,400.7,2,-9.9,9,358,8.9,971,6.1,5.965,2,33.903,2,9.15
Mirai,MR16-09_leg3,111,2017,02,11,13,52,-61.1222,281.643,-9.9,9,398.4,2,355,9.3,970.9,6.1,5.938,2,33.895,2,9.13
Mirai,MR16-09_leg3,112,2017,02,11,14,00,-61.1356,281.6008,-9.9,9,398.1,2,352,9,970.6,6,5.901,2,33.888,2,9.11
Mirai,MR16-09_leg3,113,2017,02,11,14,07,-61.1489,281.559,-9.9,9,398,2,339,9.1,970.7,5.5,5.865,2,33.883,2,9.09
Mirai,MR16-09_leg3,114,2017,02,11,14,14,-61.1621,281.518,-9.9,9,398.1,2,349,8.6,971.2,4.9,5.833,2,33.878,2,9.07
Mirai,MR16-09_leg3,115,2017,02,11,14,21,-61.1754,281.4768,-9.9,9,398.2,2,328,9.8,970.8,5,5.817,2,33.872,2,9.06
Mirai,MR16-09_leg3,116,2017,02,11,14,28,-61.1886,281.436,-9.9,9,398.1,2,321,7.6,970.7,4.8,5.82,2,33.877,2,9.06
Mirai,MR16-09_leg3,117,2017,02,11,14,35,-61.2017,281.3945,-9.9,9,397.5,2,327,4.4,970.8,4.8,5.821,2,33.882,2,9.06
Mirai,MR16-09_leg3,118,2017,02,11,14,58,-61.2444,281.2591,400.7,2,-9.9,9,333,5.5,970.7,5.1,5.854,2,33.897,2,9.08
Mirai,MR16-09_leg3,119,2017,02,11,15,03,-61.2529,281.2323,400.7,2,-9.9,9,331,4.2,970.6,5.1,5.877,2,33.899,2,9.09
Mirai,MR16-09_leg3,120,2017,02,11,15,11,-61.2674,281.1862,-9.9,9,394.9,2,351,3.8,970.6,5.1,5.904,2,33.904,2,9.11
Mirai,MR16-09_leg3,121,2017,02,11,15,18,-61.2804,281.1445,-9.9,9,394.3,2,340,4.6,970.4,5.2,5.914,2,33.906,2,9.12
Mirai,MR16-09_leg3,122,2017,02,11,15,25,-61.2933,281.1031,-9.9,9,394.1,2,345,4.1,970.6,5.3,5.899,2,33.906,2,9.11
Mirai,MR16-09_leg3,123,2017,02,11,15,32,-61.3062,281.0617,-9.9,9,395.4,2,348,5.9,970.8,5.4,5.834,2,33.885,2,9.07
Mirai,MR16-09_leg3,124,2017,02,11,15,39,-61.319,281.0206,-9.9,9,397.8,2,342,7.2,970.6,5.3,5.742,2,33.867,2,9.01
Mirai,MR16-09_leg3,125,2017,02,11,15,46,-61.3317,280.9792,-9.9,9,400.4,2,348,6.3,970.8,5.3,5.694,2,33.852,2,8.98
Mirai,MR16-09_leg3,126,2017,02,11,15,54,-61.3444,280.9382,-9.9,9,401.1,2,356,5.5,970.6,5.4,5.687,2,33.844,2,8.97
Mirai,MR16-09_leg3,127,2017,02,11,16,17,-61.3859,280.8037,400.8,2,-9.9,9,0,7.1,970.6,5.7,5.731,2,33.853,2,9
Mirai,MR16-09_leg3,128,2017,02,11,16,21,-61.3941,280.7775,400.7,2,-9.9,9,2,7.4,970.3,5.7,5.741,2,33.855,2,9.01
Mirai,MR16-09_leg3,129,2017,02,11,16,29,-61.4083,280.7324,-9.9,9,400.4,2,3,7.8,970.5,5.7,5.774,2,33.856,2,9.03
Mirai,MR16-09_leg3,130,2017,02,11,16,36,-61.4213,280.6913,-9.9,9,400.6,2,3,8.4,970.7,5.8,5.795,2,33.86,2,9.04
Mirai,MR16-09_leg3,131,2017,02,11,16,44,-61.4345,280.6504,-9.9,9,400.3,2,1,6.3,970.6,5.8,5.772,2,33.863,2,9.03
Mirai,MR16-09_leg3,132,2017,02,11,16,51,-61.4479,280.6089,-9.9,9,400.2,2,359,7.1,970.5,5.8,5.704,2,33.859,2,8.98
Mirai,MR16-09_leg3,133,2017,02,11,16,58,-61.4614,280.5672,-9.9,9,399.4,2,354,7.7,970.4,5.8,5.603,2,33.859,2,8.92
Mirai,MR16-09_leg3,134,2017,02,11,17,05,-61.475,280.5254,-9.9,9,396.7,2,353,6.4,970.3,5.8,5.407,2,33.866,2,8.8
Mirai,MR16-09_leg3,135,2017,02,11,17,12,-61.4888,280.4835,-9.9,9,395.1,2,353,6.4,970.2,5.8,5.307,2,33.857,2,8.74
Mirai,MR16-09_leg3,136,2017,02,11,17,35,-61.534,280.3461,400.7,2,-9.9,9,353,6.5,970.6,5.6,5.009,2,33.805,2,8.56
Mirai,MR16-09_leg3,137,2017,02,11,17,40,-61.5428,280.3189,400.7,2,-9.9,9,351,6.4,970.6,5.5,5.017,2,33.8,2,8.57
Mirai,MR16-09_leg3,138,2017,02,11,17,48,-61.558,280.2718,-9.9,9,399.6,2,346,6.8,970.4,5.5,4.944,2,33.791,2,8.52
Mirai,MR16-09_leg3,139,2017,02,11,17,55,-61.5718,280.229,-9.9,9,402.4,2,343,5.6,970.4,5.4,4.897,2,33.786,2,8.49
Mirai,MR16-09_leg3,140,2017,02,11,18,02,-61.5857,280.1867,-9.9,9,402.9,2,343,6.3,970.5,5.3,4.914,2,33.787,2,8.5
Mirai,MR16-09_leg3,141,2017,02,11,18,09,-61.5991,280.1441,-9.9,9,401.9,2,339,6.1,970.6,5.3,4.871,2,33.786,2,8.48
Mirai,MR16-09_leg3,142,2017,02,11,18,16,-61.6123,280.1015,-9.9,9,402.3,2,336,6.7,970.6,5.2,4.829,2,33.779,2,8.45
Mirai,MR16-09_leg3,143,2017,02,11,18,23,-61.6254,280.0588,-9.9,9,406.7,2,333,5.9,970.4,5.3,4.816,2,33.763,2,8.45
Mirai,MR16-09_leg3,144,2017,02,11,18,30,-61.6387,280.0159,-9.9,9,407.9,2,339,6.2,970.3,5.3,4.79,2,33.753,2,8.43
Mirai,MR16-09_leg3,145,2017,02,11,18,54,-61.6817,279.8748,400.7,2,-9.9,9,334,5.8,970.7,5.3,4.865,2,33.745,2,8.48
Mirai,MR16-09_leg3,146,2017,02,11,18,58,-61.6901,279.8467,400.7,2,-9.9,9,336,6.2,970.7,5.2,4.874,2,33.745,2,8.48
Mirai,MR16-09_leg3,147,2017,02,11,19,06,-61.7045,279.7987,-9.9,9,413.5,2,335,5.5,970.6,5.2,4.859,2,33.737,2,8.47
Mirai,MR16-09_leg3,148,2017,02,11,19,13,-61.7171,279.755,-9.9,9,414.5,2,335,5.5,970.8,5.2,4.848,2,33.737,2,8.47
Mirai,MR16-09_leg3,149,2017,02,11,19,20,-61.7297,279.7112,-9.9,9,414.7,2,331,3.1,971.1,5.1,4.825,2,33.738,2,8.45
Mirai,MR16-09_leg3,150,2017,02,11,19,27,-61.7421,279.6672,-9.9,9,413.6,2,336,5.7,971,5.2,4.853,2,33.751,2,8.47
Mirai,MR16-09_leg3,151,2017,02,11,19,35,-61.7543,279.6231,-9.9,9,408.8,2,331,5.8,970.7,5.2,4.848,2,33.76,2,8.47
Mirai,MR16-09_leg3,152,2017,02,11,19,42,-61.7664,279.579,-9.9,9,407.8,2,331,5.6,970.9,5.2,4.806,2,33.76,2,8.44
Mirai,MR16-09_leg3,153,2017,02,11,19,49,-61.7785,279.535,-9.9,9,405.7,2,336,5.9,971.2,5.2,4.818,2,33.768,2,8.45
Mirai,MR16-09_leg3,154,2017,02,11,20,12,-61.8174,279.392,400.8,2,-9.9,9,335,5.3,971.1,5.2,4.955,2,33.79,2,8.53
Mirai,MR16-09_leg3,155,2017,02,11,20,17,-61.825,279.3637,400.8,2,-9.9,9,336,6.1,970.7,5.2,4.924,2,33.787,2,8.51
Mirai,MR16-09_leg3,156,2017,02,11,20,24,-61.838,279.3154,-9.9,9,402.6,2,337,6.3,971,5.1,4.86,2,33.775,2,8.47
Mirai,MR16-09_leg3,157,2017,02,11,20,32,-61.8496,279.2717,-9.9,9,406.1,2,324,5.9,970.7,5.1,4.803,2,33.765,2,8.44
Mirai,MR16-09_leg3,158,2017,02,11,20,39,-61.8615,279.2278,-9.9,9,408.2,2,325,6.2,970.7,5.1,4.779,2,33.766,2,8.43
Mirai,MR16-09_leg3,159,2017,02,11,20,46,-61.8733,279.184,-9.9,9,401.2,2,332,6.5,970.9,5,4.758,2,33.795,2,8.41
Mirai,MR16-09_leg3,160,2017,02,11,20,53,-61.8851,279.1401,-9.9,9,402.1,2,333,6.8,970.9,5,4.719,2,33.813,2,8.39
Mirai,MR16-09_leg3,161,2017,02,11,21,00,-61.8965,279.0967,-9.9,9,397.8,2,327,6.9,971,5.1,4.77,2,33.822,2,8.42
Mirai,MR16-09_leg3,162,2017,02,11,21,07,-61.9081,279.0527,-9.9,9,396.2,2,324,6.2,971.1,5.1,4.794,2,33.816,2,8.43
Mirai,MR16-09_leg3,163,2017,02,11,21,30,-61.9455,278.9096,400.7,2,-9.9,9,324,6.8,971.1,5.2,4.893,2,33.815,2,8.49
Mirai,MR16-09_leg3,164,2017,02,11,21,35,-61.953,278.8813,400.7,2,-9.9,9,330,8,971.5,5.2,4.905,2,33.819,2,8.5
Mirai,MR16-09_leg3,165,2017,02,11,21,43,-61.9657,278.8333,-9.9,9,396.8,2,320,6.6,971,5.2,4.919,2,33.816,2,8.51
Mirai,MR16-09_leg3,166,2017,02,11,21,50,-61.9772,278.7894,-9.9,9,396.2,2,326,5.3,971.4,5.2,4.95,2,33.822,2,8.53
Mirai,MR16-09_leg3,167,2017,02,11,21,57,-61.9886,278.7459,-9.9,9,396.5,2,312,4.5,971.1,5.2,4.974,2,33.821,2,8.54
Mirai,MR16-09_leg3,168,2017,02,11,22,04,-61.9977,278.7012,-9.9,9,397.7,2,313,5.2,971.2,5.3,5.046,2,33.819,2,8.58
Mirai,MR16-09_leg3,169,2017,02,11,22,11,-62.0029,278.6544,-9.9,9,397.6,2,315,6.5,971.2,5.3,5.131,2,33.825,2,8.63
Mirai,MR16-09_leg3,170,2017,02,11,22,18,-62.0083,278.6075,-9.9,9,396.9,2,322,6.4,971.4,5.4,5.164,2,33.828,2,8.65
Mirai,MR16-09_leg3,171,2017,02,11,22,26,-62.0159,278.562,-9.9,9,396.6,2,318,6.5,971.3,5.4,5.154,2,33.829,2,8.65
Mirai,MR16-09_leg3,172,2017,02,11,22,49,-62.0464,278.4177,400.7,2,-9.9,9,303,5.5,971.7,5.2,5.19,2,33.832,2,8.67
Mirai,MR16-09_leg3,173,2017,02,11,22,53,-62.0525,278.3895,400.7,2,-9.9,9,313,6.5,971.7,5.2,5.191,2,33.833,2,8.67
Mirai,MR16-09_leg3,174,2017,02,11,23,01,-62.0632,278.3408,-9.9,9,395.6,2,303,4.6,971.6,5.2,5.178,2,33.83,2,8.66
Mirai,MR16-09_leg3,175,2017,02,11,23,08,-62.0729,278.2976,-9.9,9,394.8,2,300,6,971.6,5.2,5.169,2,33.829,2,8.66
Mirai,MR16-09_leg3,176,2017,02,11,23,16,-62.083,278.2541,-9.9,9,394.5,2,300,6,971.5,5.2,5.168,2,33.828,2,8.66
Mirai,MR16-09_leg3,177,2017,02,11,23,23,-62.093,278.2116,-9.9,9,394.8,2,301,6.4,971.8,5.1,5.178,2,33.825,2,8.66
Mirai,MR16-09_leg3,178,2017,02,11,23,30,-62.1032,278.1682,-9.9,9,395.4,2,302,6.4,972,5.1,5.174,2,33.821,2,8.66
Mirai,MR16-09_leg3,179,2017,02,11,23,37,-62.1135,278.1254,-9.9,9,396.8,2,298,6.1,971.7,5.1,5.164,2,33.814,2,8.65
Mirai,MR16-09_leg3,180,2017,02,11,23,44,-62.124,278.0826,-9.9,9,398.3,2,305,6.2,972.1,5.2,5.129,2,33.81,2,8.63
Mirai,MR16-09_leg3,181,2017,02,12,00,07,-62.1581,277.9418,400.6,2,-9.9,9,306,6.6,972.1,5.1,5.301,2,33.855,2,8.74
Mirai,MR16-09_leg3,182,2017,02,12,00,12,-62.1647,277.914,400.7,2,-9.9,9,289,4.9,972,5.1,5.287,2,33.849,2,8.73
Mirai,MR16-09_leg3,183,2017,02,12,00,20,-62.176,277.8669,-9.9,9,396.2,2,302,6.2,972.2,5.1,5.274,2,33.847,2,8.72
Mirai,MR16-09_leg3,184,2017,02,12,00,27,-62.1864,277.8239,-9.9,9,395.3,2,305,6.3,972.1,5.1,5.301,2,33.853,2,8.74
Mirai,MR16-09_leg3,185,2017,02,12,00,34,-62.1965,277.7811,-9.9,9,394.5,2,316,7.1,972.5,5.1,5.336,2,33.851,2,8.76
Mirai,MR16-09_leg3,186,2017,02,12,00,41,-62.2066,277.7381,-9.9,9,394.6,2,312,6.9,972.2,5.1,5.277,2,33.839,2,8.72
Mirai,MR16-09_leg3,187,2017,02,12,00,48,-62.2167,277.6946,-9.9,9,396,2,303,5.8,972.5,5.1,5.221,2,33.829,2,8.69
Mirai,MR16-09_leg3,188,2017,02,12,00,55,-62.2269,277.6508,-9.9,9,396.2,2,307,6.6,972.3,5.1,5.153,2,33.825,2,8.65
Mirai,MR16-09_leg3,189,2017,02,12,01,02,-62.2371,277.6069,-9.9,9,396.6,2,304,6.8,972.3,5.1,5.167,2,33.826,2,8.66
Mirai,MR16-09_leg3,190,2017,02,12,01,26,-62.2699,277.4645,400.7,2,-9.9,9,306,7.3,972.7,5.1,5.296,2,33.863,2,8.73
Mirai,MR16-09_leg3,191,2017,02,12,01,30,-62.2763,277.4364,400.7,2,-9.9,9,303,5.7,972.9,5,5.271,2,33.846,2,8.72
Mirai,MR16-09_leg3,192,2017,02,12,01,38,-62.2873,277.3884,-9.9,9,398.5,2,302,6.2,972.6,5,5.114,2,33.801,2,8.62
Mirai,MR16-09_leg3,193,2017,02,12,01,45,-62.2972,277.3448,-9.9,9,401.8,2,299,6.9,972.8,5,5.067,2,33.802,2,8.6
Mirai,MR16-09_leg3,194,2017,02,12,01,52,-62.307,277.3009,-9.9,9,402.4,2,302,5.7,973,5,5.097,2,33.805,2,8.61
Mirai,MR16-09_leg3,195,2017,02,12,01,59,-62.317,277.2565,-9.9,9,401.9,2,307,7,973.1,5,5.094,2,33.808,2,8.61
Mirai,MR16-09_leg3,196,2017,02,12,02,07,-62.3268,277.2124,-9.9,9,402.4,2,320,6.2,973.2,4.9,5.034,2,33.809,2,8.58
Mirai,MR16-09_leg3,197,2017,02,12,02,14,-62.3366,277.1686,-9.9,9,403,2,312,6.4,973.1,4.9,5.066,2,33.812,2,8.6
Mirai,MR16-09_leg3,198,2017,02,12,02,21,-62.3465,277.1244,-9.9,9,401.6,2,306,6.1,973,5,5.055,2,33.814,2,8.59
Mirai,MR16-09_leg3,199,2017,02,12,02,44,-62.3791,276.9801,400.8,2,-9.9,9,295,6,973.4,4.9,4.962,2,33.809,2,8.53
Mirai,MR16-09_leg3,200,2017,02,12,02,49,-62.3854,276.9518,400.8,2,-9.9,9,299,5.6,973.3,5,4.985,2,33.806,2,8.55
Mirai,MR16-09_leg3,201,2017,02,12,02,56,-62.3964,276.9026,-9.9,9,399,2,313,8.1,973.4,5,4.97,2,33.82,2,8.54
Mirai,MR16-09_leg3,202,2017,02,12,03,04,-62.4064,276.8575,-9.9,9,397.4,2,300,5.9,973.7,4.9,5.06,2,33.829,2,8.59
Mirai,MR16-09_leg3,203,2017,02,12,03,11,-62.4164,276.8129,-9.9,9,395.4,2,319,7.1,973.5,4.9,5.08,2,33.834,2,8.6
Mirai,MR16-09_leg3,204,2017,02,12,03,18,-62.4263,276.7683,-9.9,9,392.4,2,316,7.7,973.5,5,5.079,2,33.841,2,8.6
Mirai,MR16-09_leg3,205,2017,02,12,03,25,-62.4364,276.7229,-9.9,9,388.8,2,315,5.4,973.6,4.9,4.992,2,33.846,2,8.55
Mirai,MR16-09_leg3,206,2017,02,12,03,32,-62.4463,276.6783,-9.9,9,386.9,2,307,6.7,973.6,4.9,4.888,2,33.85,2,8.49
Mirai,MR16-09_leg3,207,2017,02,12,03,39,-62.456,276.6336,-9.9,9,386.9,2,313,7,973.5,4.9,4.896,2,33.842,2,8.49
Mirai,MR16-09_leg3,208,2017,02,12,04,02,-62.4876,276.4865,400.8,2,-9.9,9,315,6.3,974,4.9,5.037,2,33.841,2,8.58
Mirai,MR16-09_leg3,209,2017,02,12,04,07,-62.4939,276.4576,400.8,2,-9.9,9,311,6.8,973.9,4.9,4.998,2,33.836,2,8.55
Mirai,MR16-09_leg3,210,2017,02,12,04,15,-62.5043,276.4083,-9.9,9,394.1,2,305,6.5,973.5,4.9,4.968,2,33.829,2,8.54